Overview Statistics Trail Chart Weather Telemetry Raw packets
 

This is the latest recevied weather packets stored in our database for station/object WW6Q. If no packets are shown the sender has not sent any weather packets the latest 10 day(s).

<< 72 73 74 75 76 77 78 >>
Time Temp. Humidity Pressure Rain* Wind** Luminosity Snow
1788108781 20.56° C 94% 1018.3 hPa 1.27 mm - 128 W/m² -
1788108477 20.56° C 95% 1018.3 hPa 1.27 mm - 105 W/m² -
1788108173 20.56° C 95% 1018.4 hPa 0 mm - 94 W/m² -
1788107869 20.56° C 96% 1018.8 hPa 0 mm - 94 W/m² -
1788107565 20.56° C 97% 1019.2 hPa 0 mm - 100 W/m² -
1788107259 20° C 96% 1019.2 hPa 0 mm - 104 W/m² -
1788106956 20° C 95% 1019.1 hPa 1.78 mm - 98 W/m² -
1788106651 20° C 95% 1019.4 hPa 1.78 mm - 90 W/m² -
1788106345 20° C 96% 1019.2 hPa 1.78 mm - 85 W/m² -
1788106041 20° C 96% 1019.4 hPa 0 mm - 81 W/m² -
1788105740 20° C 97% 1019.7 hPa 1.27 mm - 72 W/m² -
1788105437 20° C 97% 1019.8 hPa 1.27 mm - 71 W/m² -
1788105133 20° C 97% 1020.2 hPa 0 mm - 67 W/m² -
1788104833 20° C 98% 1020.1 hPa 0 mm - 73 W/m² -
1788104529 20° C 98% 1020.3 hPa 1.78 mm - 74 W/m² -
1788104226 20° C 98% 1020.6 hPa 1.78 mm - 70 W/m² -
1788103926 20° C 98% 1020.4 hPa 0 mm - 65 W/m² -
1788103624 20° C 98% 1020.2 hPa 0 mm - 68 W/m² -
1788103324 20° C 98% 1020.3 hPa 0 mm - 73 W/m² -
1788103019 20° C 98% 1020.1 hPa 0 mm - 80 W/m² -
1788102718 20° C 98% 1020.4 hPa 0 mm - 78 W/m² -
1788102414 20° C 97% 1020.2 hPa 1.27 mm - 61 W/m² -
1788102108 20° C 97% 1020.2 hPa 3.05 mm - 52 W/m² -
1788101808 20° C 97% 1020.4 hPa 1.78 mm - 38 W/m² -
1788101503 20° C 97% 1020.3 hPa 1.78 mm - 35 W/m² -

* Rain latest hour (hover to see other rain measurements)
** Current wind speed in m/s (hover to see current wind gust speed)